Content
SEND FEEDBACK

Daily
Averages
Monthly
Summary
United States of America

ELGIN, OKLAHOMA


Home > North America > United States > Oklahoma
Elevation: 1188 feet     Latitude: 34 39N     Longitude: 098 24W

WEATHER
 
SELECT A DAY
Number of Records: 136,424;   Date Range: 1/1/95 - 9/30/14
 
SHARE

PRINT THIS DATA

[ ← Previous Day ]
WEATHER ALMANAC - JANUARY 30, 2013
[ Next Day → ]
[ °C ]   °F
Weather ElementAverageHighLow
Temperature40.7 °F48.4 °F (4:55 pm)34.5 °F (11:55 pm)
Dewpoint22.4 °F30.7 °F (1:55 am)14.4 °F (7:55 pm)
Humidity50.4 %70 % (1:55 am)26 % (4:55 pm)
Barometer29.99 in30.10 in (9:55 pm)29.73 in (1:55 am)
Wind Speed13.7 mph23 mph (8:55 am)
Wind Gust29.9 mph (2:55 am)
Weather ElementAverage
Visibility10 mi
Wind DirectionWNW (303.9 °)

Weather ElementTotal
Precipitation---
Heating Degree Days23.6 (Base 65)
Averaged from 23 records on January 30, 2013
WEATHER CONDITIONS BREAKOUT
WIND DIRECTION BREAKOUT
WEATHER BY HOUR - JANUARY 30, 2013
[ °C ]   °F
Local TimeTemperatureDewpointHumidityBarometerVisibilityWind DirectionWind SpeedGust SpeedPrecipitationEventsConditions
1:55 AM39.9 °F30.7 °F70 %29.73 in10.0 miNNW (330°)15.0 mph24.2 mphMostly Cloudy
2:55 AM39.6 °F29.8 °F68 %29.75 in10.0 miNW (320°)20.7 mph29.9 mphOvercast
3:55 AM39.2 °F28.8 °F66 %29.79 in10.0 miNNW (330°)17.3 mph27.6 mphMostly Cloudy
4:55 AM37.9 °F27.1 °F65 %29.82 in10.0 miNNW (340°)20.7 mph28.8 mphPartly Cloudy
5:55 AM36.9 °F27.5 °F69 %29.86 in10.0 miNW (320°)20.7 mph27.6 mphClear
6:55 AM37.2 °F28.0 °F69 %29.91 in10.0 miNW (310°)16.1 mph20.7 mphScattered Clouds
7:55 AM37.2 °F27.9 °F69 %29.96 in10.0 miNW (310°)15.0 mphClear
8:55 AM38.1 °F26.4 °F63 %29.99 in10.0 miNW (310°)23.0 mph29.9 mphPartly Cloudy
9:55 AM38.1 °F25.7 °F61 %30.04 in10.0 miNW (320°)20.7 mph27.6 mphClear
10:55 AM40.1 °F26.1 °F57 %30.06 in10.0 miNorth (350°)16.1 mph23.0 mphPartly Cloudy
11:55 AM43.0 °F26.1 °F51 %30.06 in10.0 miNNW (340°)13.8 mph25.3 mphScattered Clouds
12:55 PM45.3 °F24.4 °F44 %30.04 in10.0 miNW (320°)17.3 mph23.0 mphPartly Cloudy
1:55 PM46.8 °F22.5 °F38 %30.04 in10.0 miWNW (300°)17.3 mph27.6 mphClear
2:55 PM48.2 °F20.3 °F33 %30.02 in10.0 miNW (310°)17.3 mph25.3 mphClear
3:55 PM48.2 °F16.5 °F28 %30.03 in10.0 miWNW (300°)13.8 mphClear
4:55 PM48.4 °F15.1 °F26 %30.03 in10.0 miWNW (300°)13.8 mph24.2 mphClear
5:55 PM46.6 °F14.7 °F28 %30.04 in10.0 miWest (280°)9.2 mphClear
6:55 PM42.6 °F14.9 °F33 %30.07 in10.0 miWest (280°)4.6 mphClear
7:55 PM40.6 °F14.4 °F34 %30.07 in10.0 miWest (270°)3.5 mphClear
8:55 PM37.8 °F17.2 °F43 %30.09 in10.0 miWSW (250°)4.6 mphClear
9:55 PM36.1 °F17.8 °F47 %30.10 in10.0 miWNW (290°)5.8 mphClear
10:55 PM34.7 °F17.2 °F49 %30.10 in10.0 miWSW (250°)3.5 mphClear
11:55 PM34.5 °F17.1 °F49 %30.09 in10.0 miWest (260°)5.8 mphClear
Hourly data recorded from KFSI, located miles away from Elgin, Oklahoma







STORIES FROM OUR PARTNERS